DW2822 Weather Reports


Display with metric or nautical units.
time (UTC)temp
F
wind
direction
speed
MPH
gust
MPH
rain 1hr
in
rain 24hr
in
rain mn
in
humidity
%
barometer
mb
20260505183102 56 298 4.0 11.0 0.00 0.00 0.00 62 1012.6
20260505181556 57 313 4.0 12.0 0.00 0.00 0.00 63 1012.6
20260505180035 57 285 6.0 11.0 0.00 0.00 0.00 63 1012.7
20260505174536 57 338 3.0 12.0 0.00 0.00 0.00 62 1012.6
20260505173022 57 275 4.0 11.0 0.00 0.00 0.00 62 1012.6
20260505171528 58 321 5.0 11.0 0.00 0.00 0.00 62 1012.7
20260505170105 58 297 3.0 11.0 0.00 0.00 0.00 61 1012.7
20260505164632 58 320 3.0 10.0 0.00 0.00 0.00 61 1012.8
20260505163051 58 309 3.0 8.0 0.00 0.00 0.00 61 1012.7
20260505161545 58 306 4.0 10.0 0.00 0.00 0.00 61 1012.7
20260505153006 59 1 6.0 16.0 0.00 0.00 0.00 62 1013.0
20260505151611 59 17 6.0 12.0 0.00 0.00 0.00 62 1013.1
20260505124517 59 293 3.0 13.0 0.00 0.00 0.00 60 1013.2
20260505123001 59 342 4.0 19.0 0.00 0.00 0.00 61 1013.3
20260505121503 59 333 6.0 15.0 0.00 0.00 0.00 61 1013.3
20260505120047 59 352 8.0 15.0 0.00 0.00 0.00 64 1013.3
20260505114533 58 318 7.0 15.0 0.00 0.00 0.00 64 1013.3
20260505113033 58 356 4.0 11.0 0.00 0.00 0.00 66 1013.4
20260505111517 57 23 6.0 12.0 0.00 0.00 0.00 65 1013.4
20260505110109 57 316 2.0 12.0 0.00 0.00 0.00 67 1013.4
20260505101545 55 13 5.0 15.0 0.00 0.00 0.00 71 1013.7
20260505100005 54 309 7.0 14.0 0.00 0.00 0.00 74 1013.8
20260505094503 53 285 4.0 13.0 0.00 0.00 0.00 74 1013.9
20260505093055 52 353 8.0 16.0 0.00 0.00 0.00 75 1013.9
20260505091606 51 316 5.0 12.0 0.00 0.00 0.00 76 1013.9
20260505090031 51 23 6.0 15.0 0.00 0.00 0.00 76 1013.8
20260505084531 50 11 5.0 13.0 0.00 0.00 0.00 77 1013.9
20260505083002 49 314 3.0 8.0 0.00 0.00 0.00 76 1013.9
20260505081503 49 296 3.0 13.0 0.00 0.00 0.00 75 1014.0
20260505080052 49 311 6.0 14.0 0.00 0.00 0.00 75 1014.0
20260505074543 48 338 4.0 13.0 0.00 0.00 0.00 75 1014.0
20260505073038 48 288 5.0 10.0 0.00 0.00 0.00 75 1014.0
20260505071530 48 302 4.0 13.0 0.00 0.00 0.00 75 1014.1
20260505070100 48 303 6.0 12.0 0.00 0.00 0.00 76 1014.1
20260505064606 48 305 4.0 11.0 0.00 0.00 0.00 76 1014.3
20260505063112 48 291 4.0 10.0 0.00 0.00 0.00 76 1014.2
20260505061557 48 359 4.0 10.0 0.00 0.00 0.00 76 1014.2
20260505060033 48 318 5.0 10.0 0.00 0.00 0.00 76 1014.3
20260505054539 48 304 4.0 9.0 0.00 0.00 0.00 76 1014.3
20260505053034 48 290 2.0 8.0 0.00 0.00 0.00 76 1014.3
20260505051524 49 335 3.0 8.0 0.00 0.00 0.00 76 1014.3
20260505041558 49 307 4.0 10.0 0.00 0.00 0.00 76 1013.9
20260505040036 49 338 3.0 10.0 0.00 0.00 0.00 76 1013.8
20260505034527 49 311 3.0 11.0 0.00 0.00 0.00 76 1013.9
20260505033019 49 349 4.0 10.0 0.00 0.00 0.00 77 1014.0
20260505031608 50 331 4.0 9.0 0.00 0.00 0.00 77 1014.1
20260505030034 50 307 5.0 8.0 0.00 0.00 0.00 77 1014.2
20260505024538 50 312 4.0 7.0 0.00 0.00 0.00 77 1014.2
20260505023024 50 334 3.0 9.0 0.00 0.00 0.00 77 1014.2
20260505021521 50 335 3.0 8.0 0.00 0.00 0.00 77 1014.3
20260505020042 50 335 4.0 9.0 0.00 0.00 0.00 77 1014.3
20260505014555 50 328 3.0 6.0 0.00 0.00 0.00 77 1014.3
20260505013020 50 4 4.0 8.0 0.00 0.00 0.00 77 1014.5
20260505011515 51 360 5.0 8.0 0.00 0.00 0.00 76 1014.5
20260505010039 51 321 3.0 7.0 0.00 0.00 0.00 77 1014.6
20260505004537 51 329 4.0 7.0 0.00 0.00 0.00 77 1014.7
20260505003016 51 298 4.0 6.0 0.00 0.00 0.00 77 1014.7
20260505001509 51 311 3.0 7.0 0.00 0.00 0.00 77 1014.9
20260505000050 51 301 2.0 5.0 0.00 0.00 0.00 77 1014.9
20260504234533 51 359 3.0 5.0 0.00 0.00 0.00 77 1015.0
20260504233006 51 9 4.0 6.0 0.00 0.00 0.00 78 1014.8
20260504231502 51 6 3.0 5.0 0.00 0.00 0.00 78 1014.8
20260504230042 51 16 3.0 6.0 0.00 0.00 0.00 78 1014.9
20260504224521 51 25 5.0 8.0 0.00 0.00 0.00 78 1014.9
20260504223027 51 8 4.0 7.0 0.00 0.00 0.00 78 1015.0
20260504221516 52 48 4.0 8.0 0.00 0.00 0.00 77 1014.9
20260504220046 52 23 4.0 7.0 0.00 0.00 0.00 77 1015.0
20260504214543 52 27 4.0 7.0 0.00 0.00 0.00 77 1015.0
20260504213049 52 15 3.0 9.0 0.00 0.00 0.00 77 1015.2
20260504211534 52 13 4.0 10.0 0.00 0.00 0.00 77 1015.1
20260504210002 53 27 6.0 10.0 0.00 0.00 0.00 77 1015.1
20260504204512 53 37 5.0 11.0 0.00 0.00 0.00 76 1015.1
20260504203109 53 55 5.0 10.0 0.00 0.00 0.00 76 1015.0
20260504201600 54 38 5.0 10.0 0.00 0.00 0.00 76 1015.0
20260504200034 54 21 5.0 8.0 0.00 0.00 0.00 76 1014.7
20260504194531 54 13 3.0 6.0 0.00 0.00 0.00 76 1014.5
20260504193025 55 25 2.0 6.0 0.00 0.00 0.00 76 1014.3
20260504191525 55 39 3.0 7.0 0.00 0.00 0.00 76 1014.3
20260504190054 55 32 3.0 7.0 0.00 0.00 0.00 76 1014.2
20260504184558 55 25 3.0 6.0 0.00 0.00 0.00 75 1014.1